User: anonymous   Login
Location: Unspecified
(0.0000°N, 0.0000°E)
Time: 05:08:01
(UTC+00:00)
Language:

Meteor 2-9 - Orbit

View from above orbital plane
View from above orbital plane
View from above satellite
View from above satellite

Ground track
Ground track

The orbit data is extracted from the following two-line orbital elements,

1 13718U 82116A   18196.57484582 -.00000029 +00000-0 -20966-4 0  9996
2 13718 081.2501 307.9607 0052287 307.6437 051.9998 14.15441328836972
Epoch (UTC): 15 July 2018 13:47:46
Eccentricity: 0.0052287
inclination: 81.2501°
perigee height: 803 km
apogee height: 878 km
right ascension of ascending node: 307.9607°
argument of perigee: 307.6437°
revolutions per day: 14.15441328
mean anomaly at epoch: 51.9998°
orbit number at epoch: 83697

The dashed part of the orbit path shows where the satellite is in the earth's shadow,  

DLR